EHI
13 28 44 50 43 21 4 0 0 0 0 0 0 0 1 1 0 2 13 38 56 46 31 30 31 23 11 5 3 2 1 0 0 0 0 0 0 0 0 0 0 0 0 0 0 0 0 0 0
13 24 33 36 30 13 2 0 0 0 0 0 0 0 1 1 1 6 21 45 52 37 25 29 33 26 14 7 4 2 1 0 0 0 0 0 0 0 0 0 0 0 0 0 0 0 0 0 0
15 18 19 18 13 5 0 0 0 0 0 0 1 1 2 1 4 14 31 48 48 34 29 36 37 28 16 8 4 1 0 0 0 0 0 0 0 0 0 0 0 0 0 0 0 0 0 0 0
16 12 9 6 4 1 0 0 0 0 0 1 4 6 6 5 12 24 36 47 51 44 40 42 40 30 17 9 3 1 0 0 0 0 0 0 0 0 0 0 0 0 0 0 0 0 0 0 0
10 6 3 1 0 0 0 0 0 0 0 2 9 15 15 14 22 29 34 47 56 54 48 45 40 29 17 10 5 2 1 0 0 0 0 0 0 0 0 0 0 0 0 0 0 0 0 0 0
3 2 0 0 0 0 0 0 0 0 0 3 10 21 26 26 29 28 30 43 56 60 55 47 38 26 16 10 5 3 1 0 0 0 0 0 0 0 0 0 0 0 0 0 0 0 0 0 0
1 1 0 0 0 0 0 0 0 1 1 2 9 25 39 43 38 31 30 42 59 67 59 43 30 21 15 10 5 2 1 0 0 0 0 0 0 0 0 0 0 0 0 0 0 0 0 0 0
0 0 0 0 0 0 0 0 1 2 3 4 10 29 54 63 52 40 36 45 63 72 61 39 24 17 13 9 5 2 1 0 0 0 0 0 0 0 0 0 0 0 0 0 0 0 0 0 0
0 0 0 0 0 0 0 0 1 2 6 11 21 42 65 70 60 50 46 53 67 73 60 39 26 16 9 6 5 2 0 0 0 0 0 0 0 0 0 0 0 0 0 0 0 0 0 0 0
0 0 0 0 0 0 0 0 1 2 6 17 36 57 69 69 64 61 59 62 70 72 59 46 34 18 7 6 6 3 1 0 0 0 0 0 0 1 1 1 0 0 0 0 0 0 0 0 0
0 0 0 0 0 0 0 0 0 1 4 17 43 65 72 70 69 68 66 67 71 71 62 53 43 28 17 14 9 4 2 0 1 1 1 0 1 2 3 1 0 0 0 0 0 0 0 0 0
0 0 0 0 0 0 0 0 0 0 2 15 39 63 72 72 71 69 67 68 71 73 66 60 54 45 37 28 15 7 4 2 4 7 4 1 1 3 4 2 0 0 0 0 0 1 0 0 0
0 0 0 0 0 0 0 1 1 1 4 16 38 61 72 73 70 69 69 70 72 75 73 69 66 61 54 42 25 13 10 8 11 13 7 3 2 4 5 3 1 1 1 0 0 1 0 0 0
0 0 0 0 0 0 1 1 2 3 5 16 37 60 72 74 72 72 73 73 74 77 78 76 73 66 59 47 32 21 16 15 17 17 13 7 6 8 9 5 2 3 3 3 2 1 0 0 0
0 0 0 0 0 0 1 2 3 5 6 14 34 58 73 76 75 75 76 75 74 75 75 73 68 61 54 42 30 23 18 18 23 26 23 16 13 16 13 6 3 3 5 5 3 1 0 0 0
0 0 0 0 0 1 1 3 5 7 7 15 32 53 71 78 76 75 75 74 72 71 70 67 60 54 47 36 27 22 22 28 35 38 33 25 22 20 14 7 6 5 5 3 1 0 0 0 0
0 0 0 0 0 1 1 3 6 7 8 16 32 52 70 79 78 75 74 73 72 71 69 64 59 53 45 36 29 27 32 40 46 45 39 32 26 20 13 10 12 11 6 3 3 4 4 2 0
0 0 0 0 0 1 1 3 6 6 8 17 36 56 72 79 78 75 73 72 72 71 69 66 61 55 48 39 34 33 36 43 48 46 42 36 28 20 14 13 17 15 9 5 6 9 8 4 1
0 0 0 0 0 0 0 2 5 5 8 19 37 55 69 76 77 75 72 72 72 71 69 67 62 56 49 42 36 33 34 39 42 43 42 37 29 21 15 15 19 17 13 9 8 9 8 4 2
0 0 0 0 0 0 0 1 5 7 8 17 33 47 59 70 77 76 73 73 72 71 69 65 60 54 48 41 35 31 31 34 36 39 41 36 28 21 16 16 17 17 16 14 12 11 7 4 3
0 0 0 0 0 0 0 2 6 9 9 13 24 38 50 65 75 75 73 73 73 71 67 61 57 51 44 37 31 27 27 28 31 38 41 36 29 24 21 20 18 17 18 18 16 13 9 6 6
0 0 0 0 0 0 0 2 6 9 10 13 20 31 45 59 69 72 71 70 69 67 63 58 54 49 41 35 30 26 24 23 26 34 39 35 30 27 27 26 24 21 20 19 16 13 11 9 8
0 0 0 0 0 0 0 1 3 7 9 13 20 31 44 56 65 68 66 65 62 60 57 55 52 47 41 34 29 26 25 24 24 29 33 30 25 23 26 29 28 24 21 19 16 13 10 8 8
0 0 0 0 0 0 0 0 2 5 7 11 19 32 46 57 65 66 62 58 55 52 52 51 49 44 37 31 27 27 30 31 28 26 25 21 17 16 19 25 28 25 23 21 18 13 8 6 6
0 0 0 0 0 0 0 0 2 3 4 8 17 31 43 55 64 64 59 53 50 48 48 49 45 40 33 28 28 30 34 35 29 22 17 15 13 13 18 23 26 26 24 21 17 12 8 6 5
0 0 0 0 0 0 0 1 2 3 4 8 17 28 39 50 60 63 58 51 48 47 48 47 43 38 33 31 33 35 36 33 27 20 16 14 12 13 19 26 28 26 23 19 15 10 8 8 6
0 0 0 0 0 0 0 1 4 5 5 7 15 25 35 46 55 59 57 50 44 46 48 45 41 38 35 35 37 37 35 31 28 25 20 17 14 13 17 25 28 25 22 20 15 9 8 8 6
0 0 0 0 0 0 0 1 5 7 6 6 11 21 32 44 52 55 54 47 41 43 45 44 40 37 35 35 35 33 32 32 32 31 27 23 19 17 18 22 22 20 19 18 14 9 8 8 6
0 0 0 0 0 0 0 0 3 5 5 5 9 19 31 42 52 57 57 48 40 38 41 40 37 34 32 32 31 29 30 32 32 32 31 29 26 23 22 20 17 14 13 12 10 8 7 7 6
0 0 0 0 0 0 0 0 1 3 4 5 10 20 31 41 52 62 62 50 39 36 37 36 33 30 29 29 29 29 31 32 30 29 30 33 30 25 22 20 16 12 9 8 8 5 5 5 4
Wind_Speed
10 13 11 7 4 2 7 11 13 14 13 13 12 13 17 15 11 9 13 19 23 20 18 16 15 15 15 14 14 14 14 13 13 12 11 11 11 11 11 11 11 11 11 11 11 12 11 12 12
11 14 9 4 3 2 8 10 13 12 10 9 11 14 16 16 14 13 15 19 23 20 17 16 16 15 15 14 14 14 14 13 12 11 11 11 11 11 11 11 11 10 11 11 12 12 12 12 12
13 15 7 5 4 3 10 10 10 10 9 8 10 14 14 11 12 12 16 20 21 19 17 18 17 17 16 15 14 14 14 13 12 11 11 11 10 11 11 11 10 10 11 11 12 12 12 11 11
9 5 4 6 3 7 9 8 8 7 8 9 10 10 11 8 10 15 17 20 21 19 18 18 17 17 16 15 14 14 13 13 12 11 11 10 10 11 11 11 11 11 11 12 12 12 12 11 10
8 3 4 6 3 8 8 8 8 7 7 8 11 13 10 9 15 18 16 18 19 20 19 18 17 17 16 15 14 14 13 12 12 11 11 10 10 11 11 11 11 11 11 12 12 12 11 10 8
5 4 6 5 2 7 8 8 9 9 6 5 9 12 10 11 14 15 16 15 17 20 19 17 17 17 16 15 14 14 13 12 11 11 10 11 10 10 10 11 10 11 11 11 11 11 11 9 8
9 6 8 6 3 6 8 8 8 8 4 5 8 11 8 11 12 13 14 15 16 20 19 16 15 14 15 14 14 13 13 12 11 11 11 11 11 11 11 10 10 10 10 11 11 10 10 8 7
9 6 9 6 4 5 7 6 7 7 5 6 6 8 10 12 12 13 13 14 15 18 17 15 15 13 12 12 13 13 13 12 11 11 11 11 11 11 11 10 9 10 10 10 10 10 9 8 6
11 6 7 6 5 5 6 5 4 5 8 8 8 9 15 16 14 13 12 11 13 15 15 14 15 13 12 12 12 12 12 11 11 10 11 10 7 8 8 11 10 9 9 9 9 9 9 8 6
7 5 7 6 7 7 6 5 4 6 8 7 7 12 16 15 14 14 14 13 14 14 14 12 14 13 12 10 10 7 8 9 8 7 8 6 4 5 8 11 10 9 9 9 8 8 8 6 4
9 8 8 6 6 7 7 5 5 5 4 5 9 14 15 14 13 13 13 13 13 13 11 11 12 10 10 8 8 5 4 6 6 7 6 4 4 5 7 5 6 6 8 6 7 7 5 4 2
10 11 9 7 7 6 7 6 4 4 5 7 11 14 15 14 13 12 11 11 12 12 12 11 10 7 6 7 6 5 5 5 5 5 6 5 2 3 4 4 5 5 3 3 3 3 4 4 3
10 11 10 9 8 6 6 6 4 3 6 9 11 13 13 13 12 11 10 9 10 10 11 10 9 7 5 4 4 5 4 6 6 5 4 5 4 3 4 3 3 4 3 4 3 2 3 3 2
11 11 11 11 10 8 7 6 3 3 5 8 10 11 11 12 13 11 10 9 10 10 10 10 9 8 6 4 2 2 4 4 6 6 6 5 4 4 3 3 2 2 3 3 3 3 3 2 2
11 12 13 13 10 8 6 4 2 3 6 6 9 10 11 12 12 11 11 9 10 10 10 10 10 9 7 6 5 3 3 5 5 5 6 4 4 5 3 3 3 3 3 3 2 3 3 3 4
13 13 14 11 9 6 6 4 3 5 6 6 7 9 10 10 12 11 11 9 9 9 9 9 10 10 8 6 4 3 3 3 4 5 5 5 5 5 3 3 3 3 3 3 2 2 3 2 2
14 13 12 8 7 4 6 4 4 5 5 6 8 9 10 10 10 11 11 11 10 9 9 8 7 10 9 7 5 3 2 2 3 4 4 5 5 6 3 2 3 3 3 3 4 2 2 2 2
11 9 8 5 3 3 6 6 3 3 4 6 8 10 10 11 11 11 11 11 11 10 9 8 8 8 8 6 4 2 2 2 3 4 4 5 5 6 4 3 4 3 2 2 2 3 2 1 1
14 14 12 8 4 4 8 8 5 3 4 6 7 9 10 11 11 11 11 11 11 10 10 10 9 9 7 6 5 4 4 3 3 4 6 6 5 6 3 2 4 2 2 3 3 3 3 1 1
12 12 13 10 6 5 8 11 6 4 5 6 8 10 10 11 12 12 11 11 11 11 10 9 9 9 9 6 4 4 3 3 3 3 5 6 5 5 6 3 3 3 2 2 2 2 1 2 2
12 12 12 11 9 8 10 11 7 4 4 7 8 9 9 12 13 13 12 11 11 11 10 9 9 9 9 8 5 4 3 2 3 3 4 5 5 5 4 5 3 3 3 3 3 3 3 1 1
12 12 12 11 11 10 10 8 5 6 7 7 8 9 9 10 11 12 11 10 11 11 10 8 8 9 8 8 8 8 6 5 5 4 4 4 5 5 4 5 4 3 2 4 4 4 3 2 2
12 11 11 11 11 12 13 10 3 6 7 7 9 9 11 12 12 12 11 11 10 10 9 9 9 9 9 8 8 8 7 5 4 4 5 5 4 5 5 5 4 3 3 4 3 3 2 2 2
11 11 11 11 11 13 13 10 5 4 5 7 8 9 10 12 12 11 11 10 8 9 9 9 9 8 9 8 7 7 7 6 6 5 6 5 4 5 6 6 4 4 3 4 3 3 3 2 1
11 10 8 10 9 9 8 8 3 5 5 6 8 10 10 10 11 11 11 10 9 9 8 9 9 9 9 9 8 7 6 6 6 6 6 5 5 5 6 6 5 4 3 4 3 3 2 3 3
12 13 11 9 6 5 5 6 2 5 6 7 8 10 10 10 10 10 10 9 8 8 8 9 9 9 9 8 7 7 6 5 5 6 5 5 4 4 6 6 5 5 5 5 4 3 4 3 3
15 13 15 14 14 11 7 5 6 6 6 7 9 10 10 9 10 11 11 9 8 9 8 8 8 8 8 8 7 7 7 6 5 5 5 4 4 5 6 6 6 6 5 4 4 3 3 3 3
16 13 9 10 10 11 8 6 1 5 6 4 7 10 10 10 10 11 11 10 9 8 8 8 8 7 7 7 7 6 6 5 5 5 6 5 5 5 6 6 6 6 5 4 3 2 3 3 2
13 14 11 9 9 9 7 2 2 7 8 7 7 10 11 11 11 11 10 10 9 9 8 8 8 7 7 6 6 5 5 5 4 4 4 4 4 5 5 5 5 5 4 4 3 2 3 3 2
14 14 13 9 9 10 9 4 6 6 8 8 8 10 10 10 11 11 11 10 9 9 8 7 7 7 6 6 6 5 5 4 4 4 3 3 4 5 5 4 4 4 4 4 4 3 3 3 3
Wind_Direction
255 251 242 258 265 256 68 69 67 65 61 57 51 58 63 57 65 94 121 126 122 125 130 132 129 128 126 125 125 125 122 119 116 114 111 107 104 102 101 99 97 97 99 101 105 106 108 108 110
275 267 256 258 284 41 70 71 70 68 66 65 62 65 71 68 80 104 117 121 124 128 136 133 131 129 128 127 126 125 124 122 119 117 113 109 106 106 105 102 100 99 101 103 105 108 109 109 114
266 270 275 246 239 87 71 69 75 82 78 71 64 61 66 78 93 111 123 130 127 130 131 130 135 132 131 130 129 127 126 125 123 120 115 111 109 108 106 104 102 101 102 103 105 108 110 111 117
265 270 272 282 307 66 76 75 77 76 74 77 79 76 74 70 102 119 131 132 128 130 129 134 137 135 134 133 131 129 129 128 126 123 120 116 113 109 106 104 102 101 102 104 107 110 111 113 118
257 265 272 287 308 73 73 68 65 66 73 75 85 97 93 88 104 121 135 131 133 132 130 137 138 137 136 135 134 133 132 131 129 127 123 119 116 113 110 108 105 105 106 107 110 112 114 116 119
260 250 272 289 17 68 73 72 73 58 57 82 103 102 99 115 119 132 137 133 135 130 130 135 139 139 139 139 137 137 136 136 134 130 126 123 120 116 114 112 110 110 111 111 113 115 116 117 120
263 278 286 284 42 45 53 55 69 81 76 68 86 99 119 126 128 138 137 135 136 129 131 141 143 143 143 143 142 142 141 139 136 134 133 129 127 123 119 116 115 115 117 117 117 119 120 121 125
273 292 303 299 49 49 49 50 68 77 73 62 72 113 136 134 141 138 136 134 133 129 136 146 148 146 149 147 147 145 144 142 142 143 142 140 139 136 132 128 121 122 123 125 125 125 127 129 136
273 285 301 319 19 30 32 38 51 82 74 61 52 87 127 139 143 143 138 136 134 133 141 151 147 151 154 152 149 150 150 149 151 154 155 155 159 151 152 126 131 132 133 133 135 134 139 144 154
254 275 294 330 6 4 10 7 16 62 76 94 92 104 125 143 149 152 154 156 146 144 148 149 146 155 157 150 146 159 163 159 175 163 168 181 168 151 134 132 140 144 146 148 151 151 158 170 166
263 271 294 330 358 349 342 350 27 59 92 133 142 135 141 150 155 161 162 161 151 150 148 147 147 156 152 139 157 168 163 160 183 169 169 166 155 140 133 148 149 158 164 170 159 176 187 188 176
267 287 303 313 333 326 323 329 1 45 86 115 132 140 148 156 161 167 165 161 152 154 150 148 143 143 140 148 160 161 161 163 170 158 171 156 160 153 144 152 163 170 172 168 173 183 174 168 171
261 276 290 297 292 293 301 302 324 59 88 106 126 140 152 159 163 166 161 158 152 155 150 143 139 133 131 134 164 167 161 168 158 155 177 162 160 152 137 145 160 162 154 165 170 180 142 134 138
289 292 288 279 279 277 278 294 296 119 112 124 135 146 154 159 162 160 159 159 156 152 147 141 138 137 141 150 184 167 168 159 151 158 167 178 146 131 135 144 147 146 157 153 157 156 138 156 146
280 285 281 269 259 264 287 297 303 152 137 141 141 149 151 156 159 163 162 159 155 151 149 145 147 150 159 170 189 185 181 167 158 148 154 169 144 137 147 146 169 162 143 135 153 153 160 172 158
269 260 260 255 241 245 262 261 206 187 154 144 144 150 152 153 160 161 158 155 151 150 152 161 164 159 167 176 192 193 204 163 145 144 151 163 144 147 159 163 172 157 154 164 160 183 167 158 151
254 247 254 246 208 237 267 267 183 196 162 153 151 157 157 155 163 158 158 156 153 155 159 169 161 162 170 176 185 212 194 148 142 146 149 163 161 157 173 160 139 167 171 174 175 157 154 153 160
276 286 279 274 190 234 277 280 228 208 181 157 153 157 158 164 169 159 156 158 157 161 164 168 171 166 167 170 174 199 204 172 159 149 150 159 169 161 180 168 157 186 170 156 108 120 117 120 175
288 303 304 303 306 293 287 285 265 216 185 149 157 157 163 167 160 154 156 163 163 166 171 173 178 171 167 168 172 180 193 191 183 166 156 164 178 159 184 175 152 199 160 155 150 148 154 188 179
275 281 284 284 281 278 282 280 260 216 190 166 165 162 169 159 151 154 161 166 169 173 175 177 180 174 173 168 170 180 178 190 193 171 155 169 173 163 181 178 177 171 147 157 152 135 153 202 183
263 268 279 294 300 277 268 266 244 208 189 172 163 160 165 158 155 159 167 172 172 177 180 183 181 178 178 168 168 175 175 191 188 173 162 171 172 181 185 166 194 164 172 162 179 168 182 205 208
260 261 273 282 284 284 280 278 229 181 194 182 163 159 153 145 153 159 165 174 177 177 177 180 178 175 175 173 178 179 186 191 190 182 163 171 179 182 175 175 180 176 176 156 193 185 184 197 218
265 279 280 280 279 278 274 274 257 171 178 176 164 159 151 152 156 159 165 171 177 174 174 176 176 176 176 181 183 188 191 191 184 176 162 173 181 192 183 177 175 182 187 169 186 150 185 209 216
260 270 271 267 267 261 261 263 251 180 168 167 155 147 148 150 152 154 158 161 166 167 170 170 172 176 176 184 187 197 196 188 180 176 175 184 181 196 191 180 177 187 193 165 170 167 192 213 255
236 246 253 243 239 259 261 251 226 152 143 140 142 145 148 148 149 150 155 161 165 167 166 166 170 176 178 184 189 197 197 189 187 185 190 197 187 189 188 184 175 189 179 166 170 172 200 196 201
229 235 248 269 274 296 284 258 175 127 118 126 138 142 149 154 148 151 154 157 162 165 165 166 169 173 176 182 186 189 191 194 195 198 195 203 200 187 172 171 176 191 183 184 174 182 195 186 190
242 234 250 267 275 275 243 222 151 142 134 136 140 141 149 149 146 149 147 153 161 163 160 161 163 167 174 181 180 184 192 200 199 193 198 197 191 182 178 175 179 187 185 180 168 198 189 160 184
243 252 248 256 275 280 276 280 191 145 139 150 152 145 144 148 151 148 148 155 159 155 155 155 160 167 175 178 179 183 189 194 198 197 199 195 192 187 178 177 174 178 171 172 174 189 169 166 176
217 240 256 272 270 274 279 292 116 154 166 178 176 151 151 156 154 145 143 144 150 151 155 157 157 164 171 174 178 177 179 186 193 199 198 188 180 177 174 173 169 166 164 168 168 183 163 166 166
231 228 232 243 261 273 277 257 155 167 167 171 168 142 142 144 140 140 141 146 153 154 153 155 160 165 170 169 165 171 175 173 183 187 187 178 174 173 165 159 162 167 165 163 159 176 151 133 128